Location: Salluit
(62.2046°N, 75.6437°W)
Time: 21:48:24
(UTC-04:00)

SL-21 R/B - Visible Passes

Search period start: 18 April 2014 00:00
Search period end: 28 April 2014 00:00
Orbit: 324 x 374 km, 78.9° (Epoch: 18 April)

Date Brightness Start Highest point End Pass type
(mag) Time Alt. Az. Time Alt. Az. Time Alt. Az.
18 Apr 5.9 04:29:24 10° NNW 04:32:07 35° ENE 04:34:46 10° SE visible
19 Apr 7.5 03:23:01 10° N 03:24:40 14° NE 03:26:17 10° ENE visible
19 Apr 7.7 21:32:16 10° WNW 21:33:50 13° NW 21:35:23 10° NNW visible
20 Apr 6.7 03:48:05 10° N 03:50:31 24° NE 03:52:53 10° ESE visible
21 Apr 7.9 02:42:10 10° NNE 02:42:44 10° NE 02:43:17 10° NE visible
21 Apr 5.0 04:13:19 10° NNW 04:16:06 48° ENE 04:18:50 10° SE visible
22 Apr 7.2 03:06:27 10° N 03:08:26 17° NE 03:10:23 10° E visible
23 Apr 6.1 03:31:18 10° N 03:33:53 30° NE 03:36:25 10° ESE visible
24 Apr 7.4 02:24:35 10° NNE 02:25:52 12° NE 02:27:08 10° ENE visible
24 Apr 4.2 03:56:16 10° NNW 03:59:05 68° ENE 04:01:50 10° SSE visible
25 Apr 6.8 02:48:57 10° N 02:51:11 20° NE 02:53:22 10° ESE visible
26 Apr 5.4 03:13:34 10° NNW 03:16:15 39° ENE 03:18:52 10° SE visible
27 Apr 7.0 02:06:20 10° N 02:08:00 14° NE 02:09:39 10° E visible
27 Apr 3.8 03:38:15 10° NNW 03:41:04 87° WSW 03:43:48 10° SSE visible
